Location: Newark
(45.4000°N, 7.8167°E)
Time: 19:36:39
(UTC+00:00)

OTV 5 (USA 277) - Visible Passes

Search period start: 20 August 2019 00:00
Search period end: 30 August 2019 00:00
Orbit: 305 x 329 km, 54.5° (Epoch: 20 August)

Date Brightness Start Highest point End Pass type
(mag) Time Alt. Az. Time Alt. Az. Time Alt. Az.
20 Aug ? 02:10:58 14° NNW 02:12:08 17° NNE 02:14:01 10° ENE visible
20 Aug ? 03:44:08 10° NW 03:46:47 90° E 03:49:25 10° SE visible
21 Aug ? 02:25:51 20° NNW 02:26:56 26° NNE 02:29:15 10° E visible
21 Aug ? 03:58:51 10° WNW 04:01:15 31° SW 04:03:39 10° SSE visible
22 Aug ? 02:41:19 51° N 02:41:36 55° NNE 02:44:12 10° ESE visible
23 Aug ? 02:57:33 22° SSE 02:57:33 22° SSE 02:58:44 10° SE visible
23 Aug ? 19:15:51 10° S 19:17:22 15° SE 19:17:22 15° SE visible
24 Aug ? 19:29:19 10° SSW 19:31:51 36° SE 19:33:12 21° E visible
24 Aug ? 21:03:54 10° W 21:04:10 12° W 21:04:10 12° W visible
25 Aug ? 19:43:38 10° WSW 19:46:20 80° NW 19:48:20 16° NE visible
25 Aug ? 21:19:09 10° WNW 21:19:16 11° WNW 21:19:16 11° WNW visible
26 Aug ? 19:58:27 10° W 20:00:58 34° NNW 20:03:00 14° NE visible
27 Aug ? 20:13:35 10° WNW 20:15:43 20° NNW 20:17:20 13° NNE visible
28 Aug ? 18:53:05 10° WSW 18:55:45 50° NNW 18:58:23 10° NE visible
28 Aug ? 20:28:55 10° NW 20:30:33 15° NNW 20:31:29 13° NNE visible
29 Aug ? 19:08:05 10° W 19:10:26 26° NNW 19:12:46 10° NE visible
29 Aug ? 20:44:13 10° NNW 20:45:26 12° N 20:45:30 12° N visible
